Vorticity
nan nan nan nan nan nan nan nan nan nan nan nan nan nan nan nan nan nan nan nan nan nan nan nan nan nan nan nan nan nan nan nan nan nan nan nan nan nan nan nan nan nan nan nan
nan 8 6 5 8 6 8 8 10 6 4 10 10 9 4 6 8 8 8 10 11 9 8 10 11 12 12 12 13 13 13 10 13 11 10 9 8 8 11 9 6 7 6 nan
nan 8 7 6 7 8 9 9 4 5 8 13 8 6 4 3 7 8 6 6 4 4 5 6 7 9 10 10 12 12 10 8 9 11 11 10 10 7 5 7 7 5 7 nan
nan 9 10 8 4 9 12 4 7 13 10 8 10 2 9 5 4 4 4 5 7 9 9 8 8 9 10 9 9 7 6 6 6 8 8 8 9 8 8 8 6 4 7 nan
nan 8 7 7 5 9 7 7 13 15 13 10 11 2 11 8 1 3 4 7 10 12 12 11 10 7 6 6 6 6 6 6 6 8 8 8 8 8 8 7 6 10 8 nan
nan 7 6 9 8 8 7 11 10 10 12 10 7 13 11 6 6 6 5 7 9 11 12 9 6 4 5 5 6 5 6 7 7 8 8 8 9 8 7 8 10 9 9 nan
nan 7 6 7 15 6 7 14 12 9 6 9 9 6 9 13 7 7 8 8 8 8 5 3 4 5 5 5 7 6 6 6 9 8 9 8 7 8 7 8 7 8 11 nan
nan 6 2 12 13 8 11 13 13 11 10 9 10 16 8 5 6 6 7 7 6 4 2 3 5 6 6 6 5 6 7 8 7 7 7 7 8 9 6 7 9 10 9 nan
nan 10 6 7 8 14 8 11 9 13 9 8 10 13 9 2 -1 3 5 7 8 4 2 4 7 8 8 9 7 6 6 8 8 8 9 9 7 6 7 7 9 10 11 nan
nan 7 8 7 8 7 9 12 10 7 8 11 10 4 16 15 -1 -0 4 6 9 4 2 5 7 7 8 10 9 7 10 10 11 9 10 10 7 7 9 10 10 13 17 nan
nan 12 10 6 7 10 14 7 8 7 10 10 7 8 15 15 12 3 6 8 6 4 4 9 9 7 8 9 10 9 8 10 11 11 12 9 8 10 11 11 12 13 13 nan
nan 12 6 12 10 9 10 10 9 10 11 4 8 12 12 12 6 3 7 10 7 7 7 8 9 8 8 10 10 9 8 9 9 10 9 10 10 10 11 11 11 11 8 nan
nan 8 11 11 6 5 6 4 4 7 11 9 3 6 4 8 3 3 5 8 7 6 9 10 8 8 10 10 7 8 8 9 10 10 10 10 12 12 10 10 10 9 9 nan
nan 8 7 2 3 8 8 3 6 5 -1 9 1 -3 2 4 6 11 12 7 6 7 10 10 9 8 9 8 7 8 9 10 11 11 10 12 13 11 14 13 9 7 6 nan
nan 10 10 8 8 8 9 8 11 9 1 0 4 3 7 11 14 16 12 5 5 9 12 11 8 10 7 7 9 10 9 9 10 10 11 14 15 10 8 10 11 11 10 nan
nan 10 11 11 12 11 15 19 17 15 14 10 9 8 10 12 16 11 2 5 10 15 12 10 8 7 7 8 9 10 10 10 9 10 13 13 12 13 8 6 8 9 11 nan
nan 11 9 6 5 17 21 16 16 10 9 10 9 13 14 15 14 3 2 10 17 16 10 8 9 9 9 9 10 10 11 10 10 12 10 9 8 10 10 9 9 8 10 nan
nan 9 10 10 11 9 6 13 9 6 7 11 12 12 10 10 7 7 17 19 15 9 8 10 9 7 8 9 10 10 10 9 11 11 10 8 8 9 8 8 8 10 11 nan
nan 11 7 10 6 5 10 16 15 11 8 18 15 7 1 6 13 15 19 16 9 5 8 9 7 8 8 8 10 11 11 11 12 11 10 9 9 8 8 9 9 11 10 nan
nan 10 9 9 7 8 11 10 11 10 15 6 1 2 6 16 21 15 5 8 8 7 6 9 9 8 7 9 10 9 10 11 13 12 8 9 10 9 9 10 11 11 10 nan
nan 10 12 9 7 7 9 11 12 6 4 -0 6 15 22 15 13 11 7 4 4 9 11 10 10 8 10 11 10 8 8 9 10 9 10 10 10 10 11 11 10 9 10 nan
nan 9 8 8 8 10 12 3 -0 7 7 10 18 22 18 15 8 4 8 8 8 7 10 13 12 9 11 13 10 7 8 9 9 11 11 10 10 11 9 9 10 10 11 nan
nan 7 9 9 3 4 7 4 9 13 21 24 21 11 6 4 6 6 7 10 9 10 11 12 11 10 12 13 10 9 9 10 11 11 10 10 10 11 9 10 11 10 11 nan
nan 9 3 5 6 2 7 19 22 19 19 12 10 7 2 2 6 9 8 10 10 10 10 11 12 11 12 14 13 11 11 12 11 10 11 11 10 9 12 12 12 11 11 nan
nan 5 9 9 12 17 17 22 14 11 8 9 5 5 6 7 8 10 10 11 11 11 10 11 13 12 11 11 13 14 14 12 11 11 12 12 10 9 11 11 10 12 11 nan
nan nan nan nan nan nan nan nan nan nan nan nan nan nan nan nan nan nan nan nan nan nan nan nan nan nan nan nan nan nan nan nan nan nan nan nan nan nan nan nan nan nan nan nan
CAPE
0 0 0 0 0 0 0 0 0 0 0 0 0 0 0 0 0 0 0 0 0 0 0 0 0 0 0 0 0 21 29 16 0 0 0 0 0 0 0 0 0 0 0 0
0 0 0 0 0 0 0 0 0 0 0 0 0 0 0 0 0 0 0 0 0 0 0 0 0 0 0 0 0 0 0 0 0 0 0 0 0 0 0 0 0 0 0 0
0 0 0 0 0 0 0 0 0 0 0 0 0 0 0 0 0 0 0 0 0 0 0 0 0 0 0 0 0 0 0 0 0 0 0 0 0 0 0 0 0 0 0 0
0 0 0 0 0 0 0 0 0 0 0 0 0 0 0 0 0 0 0 0 0 0 0 0 0 0 0 0 0 0 0 0 0 0 0 0 0 0 0 0 0 0 0 0
0 0 0 0 0 0 0 0 0 0 0 0 0 0 0 0 0 0 0 0 0 0 0 0 0 0 0 0 0 0 0 0 0 0 0 0 0 0 0 0 0 0 0 0
0 0 0 0 0 0 0 0 0 0 0 0 0 0 0 0 0 0 0 0 0 0 0 0 0 0 0 0 0 0 0 0 0 0 0 0 0 0 0 0 0 0 0 0
0 0 0 0 0 0 0 0 0 0 0 0 0 0 0 0 0 0 0 0 0 0 0 0 0 0 0 0 0 0 0 0 0 0 0 0 0 0 0 0 0 0 0 0
0 0 0 0 0 0 0 0 0 0 0 0 0 0 0 0 0 0 0 0 0 0 0 0 0 0 0 0 0 0 0 0 0 0 0 0 0 0 0 0 0 0 0 0
0 0 0 0 0 0 0 0 0 0 0 0 0 0 0 0 0 0 0 0 0 0 0 0 0 0 0 0 0 0 0 0 0 0 0 0 0 0 0 0 0 0 0 0
0 0 0 0 0 0 0 0 0 0 14 0 0 0 0 0 0 0 0 0 0 0 0 0 0 0 0 0 0 0 0 0 8 10 11 0 2 7 2 0 0 0 4 17
0 0 0 0 0 0 0 0 0 0 0 4 0 0 0 0 0 0 0 0 0 0 0 0 0 1 3 4 5 1 3 9 18 22 14 13 18 5 1 0 3 14 22 4
0 0 0 0 0 0 0 0 0 0 1 4 1 0 0 0 0 0 0 0 2 4 5 4 2 3 1 2 0 2 6 3 0 0 5 10 19 12 4 7 8 17 20 20
0 0 0 0 0 0 0 0 0 0 0 0 23 0 0 0 0 0 0 0 0 0 0 0 2 4 1 0 0 0 0 0 0 0 1 7 19 17 25 24 12 8 14 29
0 0 0 0 0 0 0 0 0 0 7 0 0 0 0 1 3 0 0 0 1 2 6 7 9 4 0 0 0 0 0 0 0 3 9 19 18 14 24 28 22 41 46 40
0 0 0 0 0 0 0 0 0 0 0 13 0 0 0 0 0 0 0 0 0 4 3 9 1 0 1 0 0 0 0 0 4 10 10 14 47 18 15 3 7 43 54 48
0 0 0 0 0 0 0 0 0 0 0 1 5 4 4 0 0 0 0 5 10 6 8 0 0 0 0 0 0 0 1 6 11 13 14 11 21 27 35 46 29 16 2 0
0 0 0 1 0 0 0 0 0 0 0 1 0 3 0 0 6 12 14 13 19 9 3 0 6 0 0 0 0 0 2 8 17 17 16 16 13 9 6 2 3 3 2 0
1 0 0 3 0 15 0 0 0 0 0 0 0 1 0 0 10 3 36 7 2 0 0 2 0 0 0 0 0 0 0 4 14 10 18 9 8 3 4 1 2 2 0 2
0 1 4 2 3 0 0 0 0 0 0 0 0 0 0 13 36 40 0 0 0 0 0 8 0 0 0 0 0 0 0 6 23 19 13 10 13 5 1 8 0 0 0 3
0 0 30 3 22 13 0 0 0 0 5 0 0 0 4 2 5 44 2 0 0 1 17 9 0 0 0 0 0 0 0 1 10 10 18 14 3 3 4 0 0 1 2 5
1 7 5 5 26 6 3 0 0 14 30 1 17 22 0 3 1 2 0 0 2 4 6 0 0 0 0 0 0 0 0 1 5 13 11 7 5 2 0 0 0 2 8 15
1 26 4 6 6 3 0 0 14 32 27 25 52 13 0 0 0 0 0 0 0 0 0 0 1 1 1 1 0 0 4 7 11 15 4 6 2 0 0 1 5 9 14 16
2 1 13 21 12 13 22 0 6 34 49 7 0 0 0 0 0 0 0 0 0 0 0 0 1 2 7 24 19 9 12 15 5 0 1 4 0 1 5 10 14 14 12 10
10 1 8 21 0 23 33 41 0 1 0 2 0 2 0 0 0 0 0 0 0 0 0 0 0 3 11 34 46 41 26 3 0 0 1 2 5 0 7 9 12 13 8 11
19 29 20 29 10 27 15 4 0 0 0 0 0 0 0 0 0 0 0 0 0 0 0 0 5 16 22 38 53 46 18 8 2 0 1 3 4 12 10 8 11 10 9 7
8 34 33 22 25 8 5 2 1 0 0 0 0 0 0 0 0 0 0 0 0 0 0 2 5 16 24 36 48 25 2 2 1 1 3 7 6 16 14 15 12 0 0 0